[[{"header":{"parameterUnit":"m.s-1","parameterCategory":1,"la1":30.2991,"la2":30.254,"lo1":-89.0895,"lo2":-89.0444,"dy":0.0017,"dx":0.0017,"nx":28,"ny":28,"refTime":"2023-07-31T03:00:00:Z","depth":0,"parameterNumber":2,"parameterNumberName":"U-component_of_WINDS"},"data":[0,0,0,0,0,0,0,0,0,0,0,0,0,0,0,0,0,0,0,0,0,0,0,0,0,0,0,0,0,0,0,0,0,0,0,0,0,0,0,0,0,0,0,0,0,0,0,0,0,0,0,0,0,0,0,0,0,0,-1.0391,-1.0391,0,-1.0411,-1.0411,-1.0412,-1.0482,-1.0484,-1.0485,-1.0487,-1.0501,-1.05,-1.0499,0,0,0,0,0,0,0,0,0,0,0,0,0,-1.0407,-1.0407,-1.0391,-1.0391,-1.0391,-1.0411,-1.0411,-1.0412,-1.0482,-1.0484,-1.0486,-1.0488,-1.0502,-1.0501,-1.0499,0,0,0,0,0,0,0,0,0,0,0,0,0,-1.0411,-1.0406,-1.0391,-1.0429,-1.0432,-1.0411,-1.0411,-1.0412,-1.0481,-1.0484,-1.0486,-1.0488,-1.0502,-1.0501,-1.0499,-1.0441,0,0,-1.0494,-1.0493,0,0,0,0,0,0,0,0,-1.0411,-1.041,-1.0423,-1.0426,-1.043,-1.0447,-1.0423,-1.0421,-1.0481,-1.0463,-1.0487,-1.049,-1.0481,-1.0481,-1.048,-1.0441,-1.0442,-1.0494,-1.0493,-1.0492,-1.0492,0,0,0,0,0,0,0,-1.041,-1.041,-1.0399,-1.0423,-1.0427,-1.0443,-1.0446,-1.0423,-1.0458,-1.0464,-1.047,-1.0471,-1.0483,-1.0481,-1.048,-1.0442,-1.0494,-1.0492,-1.0491,-1.0491,-1.0356,-1.0354,0,0,0,0,0,0,-1.0405,-1.0409,-1.0398,-1.0399,-1.0426,-1.0441,-1.0445,-1.0439,-1.0458,-1.0464,-1.0469,-1.0475,-1.0483,-1.0482,-1.0481,-1.0413,-1.0492,-1.0491,-1.049,-1.0359,-1.0355,-1.0353,0,0,0,0,0,0,-1.0406,-1.0404,-1.0397,-1.0406,-1.0406,-1.0438,-1.0431,-1.0438,-1.0436,-1.0462,-1.0468,-1.0461,-1.0484,-1.0483,-1.045,-1.0414,-1.049,-1.0488,-1.0362,-1.0358,-1.0354,-1.0276,0,0,0,0,0,0,-1.0406,-1.0403,-1.0382,-1.0405,-1.0405,-1.0367,-1.0429,-1.0437,-1.0433,-1.044,-1.0456,-1.046,-1.0486,-1.0452,-1.0449,-1.0413,-1.0487,-1.0365,-1.036,-1.0355,-1.0282,-1.027,-1.0259,0,0,0,0,0,-1.0406,-1.0358,-1.0381,-1.0379,-1.038,-1.0365,-1.0365,-1.0398,-1.043,-1.0409,-1.0426,-1.046,-1.042,-1.0449,-1.0445,-1.0408,-1.0367,-1.0361,-1.0356,-1.0286,-1.0272,-1.026,0,0,0,0,0,0,-1.0329,-1.0362,-1.0387,-1.0346,-1.0352,-1.0377,-1.0351,-1.0381,-1.0377,-1.0383,-1.0423,-1.0425,-1.0386,-1.0395,-1.0426,-1.0352,-1.0399,-1.0392,-1.0348,-1.0334,-1.0323,-1.032,-1.0486,0,0,0,0,0,-1.0307,-1.0294,-1.0323,-1.0284,-1.0286,-1.0318,-1.0312,-1.0337,-1.0345,-1.0347,-1.0362,-1.0366,-1.0354,-1.0345,-1.0336,-1.0285,-1.0287,-1.0258,-1.0246,-1.0237,-1.023,-1.0201,-1.0188,-1.0334,-1.0334,-1.0334,0,0,-1.0262,-1.0279,-1.0267,-1.0269,-1.0277,-1.026,-1.0319,-1.0299,-1.0287,-1.0343,-1.0313,-1.0324,-1.0331,-1.0288,-1.027,-1.0294,-1.0191,-1.023,-1.0222,-1.022,-1.0194,-1.018,-1.0168,-1.033,-1.033,-1.0331,0,0,-1.017,-1.0182,-1.015,-1.0158,-1.017,-1.0192,-1.0184,-1.0204,-1.0214,-1.0185,-1.0227,-1.0212,-1.0192,-1.0195,-1.0194,-1.0105,-1.0135,-1.0101,-1.0041,-1.0013,-1.0002,-0.9992,-0.9958,-0.9945,-1.0094,-1.0094,-1.0094,0,-1.0111,-1.0089,-1.0129,-1.0107,-1.0105,-1.0159,-1.0126,-1.013,-1.0138,-1.0134,-1.0162,-1.0138,-1.0146,-1.0104,-1.0083,-1.0081,-1.0071,-1.0097,-1.0001,-0.9991,-0.9982,-0.995,-0.9937,-1.0089,-1.009,-1.009,-1.0091,0,-1.0015,-1.0,-0.9972,-0.998,-0.9976,-0.9948,-0.9982,-0.9973,-0.9999,-1.0017,-0.9986,-0.9999,-0.9993,-0.9986,-1.001,-0.9947,-0.9961,-0.9994,-1.0041,-0.9963,-0.9933,-0.9922,-1.0083,-1.0085,-1.0086,-1.0087,0,0,-0.9872,-0.9904,-0.9893,-0.9897,-0.9915,-0.9903,-0.9878,-0.9874,-0.9864,-0.9868,-0.9846,-0.9828,-0.9859,-0.9858,-0.9884,-0.9859,-0.9786,-0.9896,-0.9896,-0.9872,-0.9714,-0.9686,-0.9672,-0.9808,-0.9806,-0.9804,-0.9712,0,-0.9783,-0.9742,-0.9778,-0.9729,-0.9714,-0.9766,-0.9743,-0.9751,-0.9768,-0.9756,-0.9775,-0.976,-0.9804,-0.9803,-0.9782,-0.9799,-0.9754,-0.9807,-0.9784,-0.9783,-0.9777,-0.9657,-0.9627,-0.954,-0.9701,-0.97,-0.9698,0,-0.9672,-0.9673,-0.9623,-0.9645,-0.964,-0.9619,-0.9618,-0.9608,-0.9617,-0.9631,-0.9631,-0.9663,-0.9638,-0.9687,-0.9651,-0.9686,-0.9679,-0.9686,-0.9684,-0.968,-0.9733,-0.9646,-0.9514,-0.9499,-0.9681,-0.9682,-0.9683,0,-0.9569,-0.9558,-0.9527,-0.9529,-0.9554,-0.9538,-0.9547,-0.956,-0.9555,-0.9554,-0.9551,-0.9547,-0.9544,-0.9539,-0.9568,-0.9602,-0.9528,-0.958,-0.9536,-0.9535,-0.9515,-0.9515,-0.9376,-0.9516,-0.9516,-0.9516,-0.9517,0,-0.9463,-0.943,-0.9481,-0.9461,-0.9425,-0.9467,-0.9429,-0.9444,-0.9455,-0.9437,-0.9483,-0.9465,-0.9507,-0.9493,-0.9516,-0.9481,-0.948,-0.9489,-0.9495,-0.9483,-0.9481,-0.9476,-0.9482,-0.9513,-0.9514,-0.9514,-0.9515,0,-0.934,-0.9374,-0.9342,-0.937,-0.9376,-0.9348,-0.937,-0.9352,-0.9374,-0.9351,-0.9348,-0.938,-0.9366,-0.9397,-0.9387,-0.9402,-0.9352,-0.937,-0.9349,-0.9353,-0.9307,-0.9309,-0.9156,-0.9137,-0.9293,-0.9291,-0.929,0,-0.9269,-0.9245,-0.9271,-0.9263,-0.9271,-0.9258,-0.9255,-0.9295,-0.9289,-0.9299,-0.9279,-0.927,-0.9264,-0.9239,-0.926,-0.9252,-0.9268,-0.9215,-0.9266,-0.9255,-0.9263,-0.9263,-0.926,-0.9203,-0.9201,-0.9199,-0.9198,0,-0.9138,-0.9156,-0.915,-0.9149,-0.9144,-0.9145,-0.9149,-0.914,-0.9183,-0.9174,-0.9162,-0.9157,-0.9149,-0.9137,-0.9135,-0.9143,-0.9176,-0.9182,-0.9171,-0.9157,-0.9145,-0.9148,-0.9317,-0.9185,-0.9186,-0.9187,-0.9188,-0.9188,-0.9037,-0.9018,-0.9033,-0.9024,-0.9032,-0.9035,-0.9019,-0.904,-0.9031,-0.9028,-0.9052,-0.9034,-0.9044,-0.9045,-0.905,-0.9035,-0.9058,-0.9043,-0.9038,-0.9033,-0.9024,-0.9151,-0.9035,-0.9035,-0.9036,-0.9036,-0.9036,0,-0.8906,-0.8919,-0.8911,-0.8916,-0.8909,-0.8945,-0.8952,-0.8943,-0.8927,-0.8935,-0.8929,-0.8914,-0.8904,-0.8926,-0.8919,-0.8902,-0.8917,-0.8899,-0.8898,-0.8899,-0.9005,-0.9014,-0.8887,-0.8887,-0.8887,-0.8887,-0.8887,-0.8887,-0.8837,-0.8805,-0.8825,-0.8798,-0.8811,-0.8795,-0.8795,-0.8798,-0.8804,-0.8786,-0.8779,-0.8795,-0.8807,-0.8802,-0.8794,-0.88,-0.8794,-0.8769,-0.878,-0.8878,-0.8892,-0.8906,-0.8914,-0.8768,-0.8768,-0.8676,-0.8675,-0.8674]},{"header":{"parameterUnit":"m.s-1","parameterCategory":1,"la1":30.2991,"la2":30.254,"lo1":-89.0895,"lo2":-89.0444,"dy":0.0017,"dx":0.0017,"nx":28,"ny":28,"refTime":"2023-07-31T03:00:00:Z","depth":0,"parameterNumber":3,"parameterNumberName":"V-component_of_WINDS"},"data":[0,0,0,0,0,0,0,0,0,0,0,0,0,0,0,0,0,0,0,0,0,0,0,0,0,0,0,0,0,0,0,0,0,0,0,0,0,0,0,0,0,0,0,0,0,0,0,0,0,0,0,0,0,0,0,0,0,0,0.4325,0.4325,0,0.4386,0.4387,0.4388,0.4357,0.4355,0.4354,0.4352,0.4412,0.4415,0.4418,0,0,0,0,0,0,0,0,0,0,0,0,0,0.4177,0.418,0.4325,0.4325,0.4326,0.4386,0.4387,0.4388,0.4357,0.4355,0.4353,0.4352,0.4411,0.4415,0.4418,0,0,0,0,0,0,0,0,0,0,0,0,0,0.424,0.4181,0.4324,0.4318,0.4318,0.4386,0.4387,0.4388,0.4358,0.4355,0.4353,0.4351,0.441,0.4414,0.4419,0.4495,0,0,0.4433,0.4435,0,0,0,0,0,0,0,0,0.4237,0.4246,0.4318,0.4319,0.4319,0.4362,0.4357,0.4424,0.4358,0.4343,0.4352,0.435,0.4397,0.4402,0.4419,0.4498,0.4501,0.4433,0.4436,0.4438,0.4439,0,0,0,0,0,0,0,0.4233,0.4243,0.4349,0.4319,0.432,0.4311,0.4318,0.437,0.4382,0.4344,0.4342,0.435,0.4397,0.4415,0.442,0.4502,0.4433,0.4437,0.444,0.4442,0.4648,0.4651,0,0,0,0,0,0,0.4229,0.424,0.4347,0.4351,0.4271,0.4316,0.4323,0.435,0.4382,0.4384,0.4352,0.4348,0.4408,0.4415,0.4422,0.4516,0.4438,0.4442,0.4445,0.4645,0.4649,0.4652,0,0,0,0,0,0,0.4226,0.4239,0.4344,0.4295,0.4308,0.4321,0.4352,0.4353,0.4371,0.4388,0.439,0.4368,0.4407,0.4416,0.4478,0.4517,0.4445,0.4449,0.4642,0.4646,0.465,0.4702,0,0,0,0,0,0,0.4222,0.4238,0.4268,0.4296,0.431,0.44,0.4354,0.4356,0.438,0.4375,0.4404,0.4406,0.4405,0.4471,0.4483,0.4522,0.4452,0.4639,0.4644,0.4649,0.4697,0.4707,0.4716,0,0,0,0,0,0.4217,0.4278,0.4269,0.4282,0.4348,0.4402,0.4411,0.441,0.4383,0.4413,0.4424,0.4405,0.4511,0.4478,0.4491,0.4532,0.4636,0.4643,0.4649,0.4692,0.4705,0.4716,0,0,0,0,0,0,0.4253,0.4282,0.4272,0.4345,0.4372,0.4397,0.4435,0.4423,0.4457,0.4451,0.4447,0.4454,0.4519,0.4531,0.4494,0.4609,0.4569,0.4578,0.4598,0.4611,0.462,0.4616,0.4456,0,0,0,0,0,0.427,0.4312,0.4335,0.4397,0.4411,0.4421,0.4444,0.4442,0.4469,0.4479,0.4495,0.4521,0.456,0.4586,0.4622,0.4698,0.4704,0.4733,0.4742,0.475,0.4758,0.4801,0.4814,0.4672,0.4672,0.4671,0,0,0.4304,0.4325,0.4352,0.4405,0.4425,0.447,0.443,0.4478,0.4511,0.4486,0.4547,0.4559,0.4588,0.4658,0.4689,0.467,0.4799,0.4758,0.4764,0.4768,0.4808,0.4822,0.4834,0.4676,0.4675,0.4674,0,0,0.439,0.441,0.4465,0.4487,0.4519,0.4525,0.4538,0.4566,0.4574,0.4635,0.4618,0.4656,0.4723,0.4745,0.4765,0.4861,0.4846,0.4873,0.4923,0.4965,0.4976,0.4986,0.5022,0.5034,0.488,0.488,0.488,0,0.4428,0.4495,0.4494,0.4544,0.4568,0.455,0.4606,0.4626,0.4668,0.4685,0.4663,0.4748,0.4766,0.4842,0.4865,0.4881,0.4897,0.487,0.4975,0.4985,0.4994,0.5028,0.5041,0.4884,0.4883,0.4883,0.4883,0,0.4542,0.4588,0.4629,0.4672,0.47,0.4753,0.4759,0.4788,0.4783,0.4792,0.4854,0.4875,0.4917,0.4934,0.4929,0.501,0.4997,0.4975,0.4936,0.5011,0.5043,0.5056,0.4888,0.4887,0.4886,0.4885,0,0,0.4652,0.4695,0.471,0.4731,0.4765,0.4801,0.4852,0.4895,0.492,0.495,0.4993,0.5051,0.5032,0.5055,0.5051,0.5088,0.5164,0.5061,0.5062,0.5081,0.5256,0.5274,0.5289,0.5154,0.5157,0.5159,0.5254,0,0.4741,0.4834,0.4835,0.492,0.4963,0.4947,0.4992,0.5018,0.5027,0.5065,0.5075,0.5117,0.5087,0.5101,0.5136,0.5148,0.52,0.5141,0.5195,0.5197,0.519,0.5305,0.5323,0.5413,0.5267,0.5269,0.527,0,0.4858,0.4894,0.4984,0.5014,0.5032,0.5073,0.5113,0.5149,0.5178,0.5183,0.5209,0.5201,0.5253,0.5212,0.5285,0.5245,0.5267,0.5276,0.5279,0.5285,0.5239,0.5316,0.5441,0.5455,0.529,0.5288,0.5287,0,0.4931,0.5001,0.5065,0.5082,0.5119,0.5148,0.5164,0.5191,0.5217,0.5252,0.5269,0.5308,0.533,0.536,0.5363,0.5332,0.5436,0.5395,0.5442,0.5442,0.5465,0.5464,0.5598,0.5477,0.5477,0.5477,0.5476,0,0.5032,0.5088,0.5099,0.5138,0.52,0.5201,0.5262,0.5276,0.53,0.5341,0.5328,0.5367,0.5367,0.5407,0.5409,0.547,0.5479,0.5484,0.5484,0.5486,0.5486,0.5501,0.5496,0.548,0.5479,0.5479,0.5478,0,0.5124,0.5134,0.5202,0.5232,0.5241,0.5286,0.5311,0.5348,0.5356,0.5409,0.5421,0.5434,0.548,0.5486,0.5538,0.554,0.5614,0.5606,0.5605,0.5604,0.5651,0.5647,0.5801,0.5821,0.5686,0.5687,0.5688,0,0.5188,0.5232,0.5267,0.5294,0.5313,0.5357,0.5384,0.5386,0.5415,0.5453,0.5485,0.553,0.5567,0.5641,0.5654,0.5695,0.5689,0.574,0.5695,0.5697,0.5692,0.569,0.5695,0.5749,0.5751,0.5752,0.5753,0,0.5302,0.5305,0.5346,0.5389,0.5422,0.5455,0.5487,0.5509,0.5516,0.5548,0.5596,0.5625,0.568,0.5725,0.5766,0.5781,0.5769,0.5767,0.578,0.5784,0.5782,0.5785,0.563,0.5764,0.5763,0.5762,0.5761,0.5761,0.5383,0.5422,0.5453,0.5499,0.5523,0.5554,0.5591,0.5605,0.5646,0.5692,0.569,0.5743,0.5772,0.5826,0.5844,0.5886,0.5869,0.5887,0.5892,0.5897,0.5903,0.5774,0.5893,0.5892,0.5892,0.5892,0.5891,0,0.5497,0.5517,0.556,0.5605,0.5642,0.5628,0.5663,0.5694,0.5741,0.577,0.5807,0.5862,0.5906,0.5924,0.5967,0.5997,0.5992,0.6008,0.6007,0.6011,0.5915,0.59,0.6011,0.6011,0.6011,0.6011,0.6011,0.6011,0.5561,0.5626,0.5633,0.571,0.5729,0.5783,0.5804,0.5832,0.5855,0.5919,0.5956,0.5968,0.5993,0.6038,0.6078,0.6082,0.6099,0.6118,0.6119,0.6029,0.6017,0.6006,0.5992,0.6121,0.6121,0.6212,0.6213,0.6213]}]]